| time (UTC) | temp F | wind direction | speed MPH | gust MPH | rain 1hr in | rain 24hr in | rain mn in | humidity % | barometer mb |
| 20260903122349 | 74 | 98 | 0.0 | 0.0 | 0.00 | 0.00 | 0.00 | 97 | 1024.0 |
| 20260903120849 | 72 | 88 | 0.0 | 0.0 | 0.00 | 0.00 | 0.00 | 98 | 1024.0 |
| 20260903115849 | 70 | 94 | 0.0 | 0.0 | 0.00 | 0.00 | 0.00 | 98 | 1023.7 |
| 20260903114849 | 69 | 81 | 0.0 | 0.0 | 0.00 | 0.00 | 0.00 | 98 | 1023.7 |
| 20260903113849 | 68 | 71 | 0.0 | 0.0 | 0.00 | 0.00 | 0.00 | 98 | 1023.7 |
| 20260903112849 | 68 | 73 | 0.0 | 0.0 | 0.00 | 0.00 | 0.00 | 98 | 1023.7 |
| 20260903112349 | 68 | 85 | 0.0 | 0.0 | 0.00 | 0.00 | 0.00 | 98 | 1023.7 |
| 20260903110849 | 68 | 74 | 0.0 | 0.0 | 0.00 | 0.00 | 0.00 | 98 | 1023.4 |
| 20260903105849 | 68 | 80 | 0.0 | 0.0 | 0.00 | 0.00 | 0.00 | 98 | 1023.4 |
| 20260903105349 | 68 | 79 | 0.0 | 0.0 | 0.00 | 0.00 | 0.00 | 97 | 1023.4 |
| 20260903104849 | 69 | 81 | 0.0 | 0.0 | 0.00 | 0.00 | 0.00 | 98 | 1023.4 |
| 20260903103849 | 68 | 69 | 0.0 | 0.0 | 0.00 | 0.00 | 0.00 | 98 | 1023.0 |
| 20260903102849 | 68 | 56 | 0.0 | 0.0 | 0.00 | 0.00 | 0.00 | 98 | 1023.0 |
| 20260903102349 | 68 | 84 | 0.0 | 0.0 | 0.00 | 0.00 | 0.00 | 97 | 1023.0 |
| 20260903101849 | 68 | 76 | 0.0 | 0.0 | 0.00 | 0.00 | 0.00 | 98 | 1022.7 |
| 20260903100849 | 69 | 85 | 0.0 | 0.0 | 0.00 | 0.00 | 0.00 | 97 | 1022.7 |
| 20260903100349 | 69 | 80 | 0.0 | 0.0 | 0.00 | 0.00 | 0.00 | 98 | 1022.7 |
| 20260903095849 | 69 | 68 | 0.0 | 0.0 | 0.00 | 0.00 | 0.00 | 98 | 1022.7 |
| 20260903095349 | 69 | 51 | 0.0 | 0.0 | 0.00 | 0.00 | 0.00 | 98 | 1022.7 |
| 20260903094849 | 69 | 74 | 0.0 | 0.0 | 0.00 | 0.00 | 0.00 | 98 | 1022.7 |
| 20260903093849 | 69 | 78 | 0.0 | 0.0 | 0.00 | 0.00 | 0.00 | 97 | 1023.0 |
| 20260903093349 | 69 | 87 | 0.0 | 0.0 | 0.00 | 0.00 | 0.00 | 97 | 1023.0 |
| 20260903092349 | 69 | 66 | 0.0 | 0.0 | 0.00 | 0.00 | 0.00 | 97 | 1023.0 |
| 20260903091349 | 69 | 90 | 0.0 | 0.0 | 0.00 | 0.00 | 0.00 | 97 | 1023.0 |
| 20260903090349 | 69 | 82 | 0.0 | 0.0 | 0.00 | 0.00 | 0.00 | 97 | 1023.0 |
| 20260903085849 | 70 | 87 | 0.0 | 0.0 | 0.00 | 0.00 | 0.00 | 97 | 1023.0 |
| 20260903084849 | 70 | 33 | 0.0 | 0.0 | 0.00 | 0.00 | 0.00 | 97 | 1023.0 |
| 20260903083849 | 70 | 72 | 0.0 | 0.0 | 0.00 | 0.00 | 0.00 | 97 | 1023.0 |
| 20260903083349 | 70 | 69 | 0.0 | 0.0 | 0.00 | 0.00 | 0.00 | 97 | 1023.0 |
| 20260903081349 | 70 | 74 | 0.0 | 0.0 | 0.00 | 0.00 | 0.00 | 97 | 1023.0 |
| 20260903080849 | 70 | 35 | 0.0 | 0.0 | 0.00 | 0.00 | 0.00 | 97 | 1023.0 |
| 20260903074849 | 70 | 38 | 0.0 | 0.0 | 0.00 | 0.00 | 0.00 | 97 | 1022.7 |
| 20260903074349 | 70 | 73 | 0.0 | 0.0 | 0.00 | 0.00 | 0.00 | 97 | 1022.7 |
| 20260903073349 | 70 | 47 | 0.0 | 0.0 | 0.00 | 0.00 | 0.00 | 97 | 1022.7 |
| 20260903072349 | 70 | 61 | 0.0 | 0.0 | 0.00 | 0.00 | 0.00 | 97 | 1022.7 |
| 20260903071349 | 70 | 58 | 0.0 | 0.0 | 0.00 | 0.00 | 0.00 | 97 | 1022.7 |
| 20260903070349 | 70 | 26 | 0.0 | 0.0 | 0.00 | 0.00 | 0.00 | 97 | 1022.4 |
| 20260903064349 | 71 | 90 | 0.0 | 0.0 | 0.00 | 0.00 | 0.00 | 97 | 1022.4 |
| 20260903063849 | 71 | 63 | 0.0 | 0.0 | 0.00 | 0.00 | 0.00 | 97 | 1022.7 |
| 20260903062849 | 71 | 74 | 0.0 | 0.0 | 0.00 | 0.00 | 0.00 | 96 | 1022.7 |
| 20260903061349 | 71 | 81 | 0.0 | 0.0 | 0.00 | 0.00 | 0.00 | 96 | 1022.7 |
| 20260903060349 | 71 | 67 | 0.0 | 0.0 | 0.00 | 0.00 | 0.00 | 96 | 1022.7 |
| 20260903054349 | 71 | 72 | 0.0 | 0.0 | 0.00 | 0.00 | 0.00 | 96 | 1023.0 |
| 20260903053349 | 72 | 65 | 0.0 | 0.0 | 0.00 | 0.00 | 0.00 | 96 | 1023.0 |
| 20260903052349 | 72 | 143 | 0.0 | 0.0 | 0.00 | 0.00 | 0.00 | 96 | 1023.0 |
| 20260903051349 | 72 | 48 | 0.0 | 0.0 | 0.00 | 0.00 | 0.00 | 96 | 1023.0 |
| 20260903050349 | 72 | 77 | 0.0 | 0.0 | 0.00 | 0.00 | 0.00 | 96 | 1023.0 |
| 20260903044349 | 72 | 73 | 0.0 | 0.0 | 0.00 | 0.00 | 0.00 | 95 | 1023.0 |
| 20260903043349 | 72 | 62 | 0.0 | 0.0 | 0.00 | 0.00 | 0.00 | 95 | 1023.0 |
| 20260903042849 | 72 | 69 | 0.0 | 0.0 | 0.00 | 0.00 | 0.00 | 95 | 1023.0 |
| 20260903041849 | 73 | 75 | 0.0 | 0.0 | 0.00 | 0.00 | 0.00 | 95 | 1023.0 |
| 20260903040849 | 73 | 41 | 0.0 | 0.0 | 0.00 | 0.00 | 0.00 | 95 | 1023.0 |
| 20260903035849 | 73 | 101 | 0.0 | 0.0 | 0.00 | 0.00 | 0.00 | 95 | 1023.0 |
| 20260903035349 | 73 | 67 | 0.0 | 0.0 | 0.00 | 0.00 | 0.00 | 95 | 1023.0 |
| 20260903033349 | 73 | 74 | 0.0 | 0.0 | 0.00 | 0.00 | 0.00 | 94 | 1023.0 |
| 20260903032349 | 73 | 75 | 0.0 | 0.0 | 0.00 | 0.00 | 0.00 | 94 | 1023.0 |
| 20260903031849 | 74 | 73 | 0.0 | 0.0 | 0.00 | 0.00 | 0.00 | 94 | 1023.0 |
| 20260903030849 | 74 | 20 | 0.0 | 0.0 | 0.00 | 0.00 | 0.00 | 94 | 1022.7 |
| 20260903025849 | 74 | 357 | 0.0 | 0.0 | 0.00 | 0.00 | 0.00 | 94 | 1022.7 |
| 20260903024849 | 74 | 20 | 0.0 | 0.0 | 0.00 | 0.00 | 0.00 | 93 | 1022.7 |
| 20260903024349 | 74 | 29 | 0.0 | 0.0 | 0.00 | 0.00 | 0.00 | 93 | 1023.0 |
| 20260903023849 | 74 | 70 | 0.0 | 0.0 | 0.00 | 0.00 | 0.00 | 93 | 1022.7 |
| 20260903022849 | 75 | 35 | 0.0 | 0.0 | 0.00 | 0.00 | 0.00 | 93 | 1023.0 |
| 20260903022349 | 75 | 351 | 0.0 | 0.0 | 0.00 | 0.00 | 0.00 | 93 | 1023.0 |
| 20260903021849 | 75 | 101 | 0.0 | 0.0 | 0.00 | 0.00 | 0.00 | 92 | 1023.0 |
| 20260903021349 | 75 | 93 | 0.0 | 0.0 | 0.00 | 0.00 | 0.00 | 92 | 1022.7 |
| 20260903020349 | 75 | 8 | 0.0 | 0.0 | 0.00 | 0.00 | 0.00 | 92 | 1022.7 |
| 20260903015349 | 76 | 4 | 0.0 | 0.0 | 0.00 | 0.00 | 0.00 | 91 | 1022.7 |
| 20260903014349 | 76 | 61 | 0.0 | 0.0 | 0.00 | 0.00 | 0.00 | 91 | 1022.7 |
| 20260903013349 | 76 | 11 | 0.0 | 0.0 | 0.00 | 0.00 | 0.00 | 91 | 1022.7 |
| 20260903012349 | 77 | 34 | 0.0 | 0.0 | 0.00 | 0.00 | 0.00 | 90 | 1022.4 |
| 20260903011849 | 77 | 280 | 0.0 | 0.0 | 0.00 | 0.00 | 0.00 | 89 | 1022.4 |
| 20260903011349 | 77 | 318 | 0.0 | 0.0 | 0.00 | 0.00 | 0.00 | 89 | 1022.4 |
| 20260903005349 | 78 | 75 | 0.0 | 0.0 | 0.00 | 0.00 | 0.00 | 86 | 1022.4 |
| 20260903003849 | 79 | 339 | 0.0 | 0.0 | 0.00 | 0.00 | 0.00 | 86 | 1022.0 |
| 20260903002849 | 79 | 350 | 0.0 | 0.0 | 0.00 | 0.00 | 0.00 | 85 | 1022.0 |
| 20260903001849 | 80 | 331 | 0.0 | 0.0 | 0.00 | 0.00 | 0.00 | 84 | 1022.0 |
| 20260903001349 | 80 | 286 | 0.0 | 0.0 | 0.00 | 0.00 | 0.00 | 83 | 1022.0 |
| 20260903000349 | 81 | 277 | 1.0 | 1.0 | 0.00 | 0.00 | 0.00 | 83 | 1022.0 |
| 20260902235849 | 82 | 311 | 1.0 | 1.0 | 0.00 | 0.00 | 0.00 | 82 | 1022.0 |
| 20260902234849 | 82 | 20 | 1.0 | 1.0 | 0.00 | 0.00 | 0.00 | 80 | 1022.0 |
| 20260902234349 | 83 | 329 | 1.0 | 1.0 | 0.00 | 0.00 | 0.00 | 79 | 1022.0 |
| 20260902233849 | 83 | 289 | 1.0 | 1.0 | 0.00 | 0.00 | 0.00 | 78 | 1022.0 |
| 20260902232849 | 84 | 333 | 1.0 | 1.0 | 0.00 | 0.00 | 0.00 | 73 | 1022.0 |
| 20260902232349 | 85 | 54 | 1.0 | 1.0 | 0.00 | 0.00 | 0.00 | 72 | 1022.0 |
| 20260902231349 | 86 | 292 | 2.0 | 2.0 | 0.00 | 0.00 | 0.00 | 68 | 1022.0 |
| 20260902225849 | 89 | 301 | 2.0 | 2.0 | 0.00 | 0.00 | 0.00 | 65 | 1022.0 |
| 20260902223849 | 94 | 281 | 1.0 | 1.0 | 0.00 | 0.00 | 0.00 | 59 | 1022.0 |
| 20260902223349 | 95 | 283 | 1.0 | 1.0 | 0.00 | 0.00 | 0.00 | 58 | 1022.0 |
| 20260902222849 | 96 | 178 | 1.0 | 1.0 | 0.00 | 0.00 | 0.00 | 57 | 1022.0 |
| 20260902222349 | 96 | 48 | 1.0 | 1.0 | 0.00 | 0.00 | 0.00 | 54 | 1022.0 |
| 20260902221349 | 96 | 124 | 2.0 | 2.0 | 0.00 | 0.00 | 0.00 | 48 | 1022.4 |
| 20260902220849 | 97 | 86 | 1.0 | 1.0 | 0.00 | 0.00 | 0.00 | 45 | 1022.4 |
| 20260902215849 | 97 | 158 | 2.0 | 2.0 | 0.00 | 0.00 | 0.00 | 44 | 1022.4 |
| 20260902215349 | 97 | 89 | 2.0 | 2.0 | 0.00 | 0.00 | 0.00 | 43 | 1022.4 |
| 20260902213349 | 96 | 46 | 3.0 | 3.0 | 0.00 | 0.00 | 0.00 | 45 | 1022.4 |
| 20260902212849 | 96 | 155 | 2.0 | 2.0 | 0.00 | 0.00 | 0.00 | 46 | 1022.4 |
| 20260902205849 | 97 | 145 | 1.0 | 1.0 | 0.00 | 0.00 | 0.00 | 44 | 1022.4 |
| 20260902205349 | 97 | 104 | 2.0 | 2.0 | 0.00 | 0.00 | 0.00 | 47 | 1022.4 |
| 20260902204349 | 97 | 92 | 2.0 | 2.0 | 0.00 | 0.00 | 0.00 | 44 | 1022.4 |
| 20260902203349 | 98 | 85 | 3.0 | 3.0 | 0.00 | 0.00 | 0.00 | 45 | 1022.7 |
| 20260902202849 | 97 | 69 | 3.0 | 3.0 | 0.00 | 0.00 | 0.00 | 44 | 1022.7 |
| 20260902201849 | 96 | 122 | 3.0 | 3.0 | 0.00 | 0.00 | 0.00 | 45 | 1022.7 |
| 20260902201349 | 97 | 156 | 3.0 | 3.0 | 0.00 | 0.00 | 0.00 | 42 | 1022.7 |
| 20260902200349 | 97 | 164 | 3.0 | 3.0 | 0.00 | 0.00 | 0.00 | 48 | 1022.7 |
| 20260902195849 | 97 | 173 | 3.0 | 3.0 | 0.00 | 0.00 | 0.00 | 45 | 1022.7 |
| 20260902194349 | 97 | 155 | 3.0 | 3.0 | 0.00 | 0.00 | 0.00 | 46 | 1023.0 |
| 20260902193349 | 97 | 60 | 3.0 | 3.0 | 0.00 | 0.00 | 0.00 | 44 | 1023.4 |
| 20260902192349 | 96 | 123 | 2.0 | 2.0 | 0.00 | 0.00 | 0.00 | 50 | 1023.4 |
| 20260902191849 | 96 | 71 | 2.0 | 2.0 | 0.00 | 0.00 | 0.00 | 46 | 1023.4 |
| 20260902190849 | 96 | 82 | 2.0 | 2.0 | 0.00 | 0.00 | 0.00 | 47 | 1023.4 |
| 20260902184849 | 96 | 352 | 2.0 | 2.0 | 0.00 | 0.00 | 0.00 | 50 | 1023.7 |
| 20260902184349 | 96 | 115 | 2.0 | 2.0 | 0.00 | 0.00 | 0.00 | 47 | 1023.7 |
| 20260902182849 | 95 | 87 | 3.0 | 3.0 | 0.00 | 0.00 | 0.00 | 44 | 1023.7 |
| 20260902181349 | 96 | 126 | 3.0 | 3.0 | 0.00 | 0.00 | 0.00 | 47 | 1024.0 |
| 20260902180349 | 95 | 106 | 3.0 | 3.0 | 0.00 | 0.00 | 0.00 | 52 | 1024.0 |
| 20260902175349 | 95 | 168 | 3.0 | 3.0 | 0.00 | 0.00 | 0.00 | 49 | 1024.0 |
| 20260902174349 | 95 | 138 | 3.0 | 3.0 | 0.00 | 0.00 | 0.00 | 50 | 1024.4 |
| 20260902172849 | 95 | 171 | 3.0 | 3.0 | 0.00 | 0.00 | 0.00 | 51 | 1024.4 |
| 20260902172349 | 94 | 177 | 3.0 | 3.0 | 0.00 | 0.00 | 0.00 | 49 | 1024.7 |
| 20260902171849 | 94 | 108 | 2.0 | 2.0 | 0.00 | 0.00 | 0.00 | 52 | 1024.7 |
| 20260902170849 | 94 | 337 | 2.0 | 2.0 | 0.00 | 0.00 | 0.00 | 56 | 1025.1 |
| 20260902165849 | 94 | 291 | 3.0 | 3.0 | 0.00 | 0.00 | 0.00 | 53 | 1025.1 |
| 20260902165349 | 94 | 129 | 3.0 | 3.0 | 0.00 | 0.00 | 0.00 | 55 | 1025.1 |
| 20260902164349 | 94 | 72 | 2.0 | 2.0 | 0.00 | 0.00 | 0.00 | 55 | 1025.4 |
| 20260902163349 | 93 | 219 | 2.0 | 2.0 | 0.00 | 0.00 | 0.00 | 57 | 1025.4 |
| 20260902161349 | 91 | 94 | 2.0 | 2.0 | 0.00 | 0.00 | 0.00 | 59 | 1025.4 |
| 20260902160349 | 92 | 108 | 2.0 | 2.0 | 0.00 | 0.00 | 0.00 | 58 | 1025.7 |
| 20260902155849 | 91 | 52 | 2.0 | 2.0 | 0.00 | 0.00 | 0.00 | 60 | 1025.7 |
| 20260902154849 | 91 | 110 | 2.0 | 2.0 | 0.00 | 0.00 | 0.00 | 58 | 1025.7 |
| 20260902154349 | 92 | 222 | 2.0 | 2.0 | 0.00 | 0.00 | 0.00 | 60 | 1025.7 |
| 20260902153349 | 90 | 74 | 2.0 | 2.0 | 0.00 | 0.00 | 0.00 | 64 | 1026.1 |
| 20260902152849 | 89 | 59 | 2.0 | 2.0 | 0.00 | 0.00 | 0.00 | 65 | 1026.1 |
| 20260902151849 | 89 | 113 | 2.0 | 2.0 | 0.00 | 0.00 | 0.00 | 67 | 1026.1 |
| 20260902151349 | 88 | 157 | 2.0 | 2.0 | 0.00 | 0.00 | 0.00 | 67 | 1026.1 |
| 20260902145849 | 89 | 285 | 1.0 | 1.0 | 0.00 | 0.00 | 0.00 | 68 | 1026.1 |
| 20260902145349 | 89 | 78 | 1.0 | 1.0 | 0.00 | 0.00 | 0.00 | 69 | 1025.7 |
| 20260902144349 | 89 | 42 | 1.0 | 1.0 | 0.00 | 0.00 | 0.00 | 69 | 1025.7 |
| 20260902143349 | 88 | 114 | 1.0 | 1.0 | 0.00 | 0.00 | 0.00 | 72 | 1025.7 |
| 20260902141849 | 86 | 77 | 1.0 | 1.0 | 0.00 | 0.00 | 0.00 | 73 | 1026.1 |
| 20260902141349 | 86 | 119 | 2.0 | 2.0 | 0.00 | 0.00 | 0.00 | 77 | 1026.1 |
| 20260902140349 | 85 | 111 | 1.0 | 1.0 | 0.00 | 0.00 | 0.00 | 76 | 1026.1 |
| 20260902135849 | 85 | 72 | 1.0 | 1.0 | 0.00 | 0.00 | 0.00 | 77 | 1026.1 |
| 20260902133849 | 83 | 138 | 2.0 | 2.0 | 0.00 | 0.00 | 0.00 | 81 | 1026.1 |
| 20260902133349 | 82 | 71 | 1.0 | 1.0 | 0.00 | 0.00 | 0.00 | 82 | 1026.1 |
| 20260902132849 | 82 | 91 | 1.0 | 1.0 | 0.00 | 0.00 | 0.00 | 84 | 1026.1 |
| 20260902132349 | 81 | 84 | 1.0 | 1.0 | 0.00 | 0.00 | 0.00 | 85 | 1026.1 |
| 20260902131349 | 79 | 29 | 1.0 | 1.0 | 0.00 | 0.00 | 0.00 | 88 | 1026.1 |
| 20260902130349 | 79 | 104 | 0.0 | 0.0 | 0.00 | 0.00 | 0.00 | 87 | 1026.1 |
| 20260902125349 | 77 | 97 | 0.0 | 0.0 | 0.00 | 0.00 | 0.00 | 90 | 1026.1 |
| 20260902123849 | 75 | 87 | 0.0 | 0.0 | 0.00 | 0.00 | 0.00 | 96 | 1025.7 |